Location: Bosdarros
(43.2167°N, 0.3667°W)
Time: 15:11:27
(UTC+00:00)

Cosmos 1356 - Pass Details

Date: 22 April 2021
Orbit: 438 x 442 km, 81.1° (Epoch: 12 May)

Event Time Altitude Azimuth Distance (km) Brightness Sun altitude
Rises 19:59:46 0° 350° (N) 2,445 7.8 -12.0°
Reaches altitude 10° 20:01:50 10° 351° (N) 1,569 6.7 -12.3°
Maximum altitude 20:05:16 83° 80° (E) 451 3.3 -12.8°
Enters shadow 20:08:05 14° 168° (SSE) 1,314 5.4 -13.3°
